Location: Valdosta
(30.8330°N, 83.2790°W)
Time: 23:11:41
(UTC-04:00)

Amateur Radio Satellites - All Passes

Search period start: 21 October 2014 22:41
Search period end: 22 October 2014 22:41
Location: Valdosta, 30.8330°N, 83.2790°W

Satellite Date Start Highest point End Downlink Frequencies (MHz)
Time Altitude Azimuth
HO-68 21 Oct 22:50:24 22:56:38 32° 262° (W) 23:02:55 435.675 MHz FM
FUNcube-1 21 Oct 22:54:00 22:58:28 52° 75° (ENE) 23:02:55 145.950 - 145.970 MHz USB
SO-50 21 Oct 23:02:55 23:06:49 24° 55° (NE) 23:10:43 436.795 FM
Oscar 11 21 Oct 23:05:31 23:09:36 41° 261° (W) 23:13:42 145.825 FM, Beacon 2401.500 USB
RS-15 21 Oct 23:21:17 23:32:24 82° 115° (ESE) 23:43:19 29.354 - 29.394 USB, Beacon 29.352 USB
KITSAT 1 21 Oct 23:37:53 23:45:58 78° 247° (WSW) 23:54:00 435.175 FM
ZACube-1 21 Oct 23:44:52 23:49:09 38° 262° (W) 23:53:25 437.345 MHz
FUNcube-1 22 Oct 00:33:47 00:35:01 11° 267° (W) 00:36:16 145.950 - 145.970 MHz USB
SO-50 22 Oct 00:43:02 00:47:22 33° 248° (WSW) 00:51:42 436.795 FM
UOSAT-12 22 Oct 00:45:15 00:48:53 22° 54° (NE) 00:52:27 437.025 FM, 437.400 FM
MaSat-1 22 Oct 01:04:45 01:09:08 78° 292° (WNW) 01:13:11 437.345 MHz
RS-15 22 Oct 01:37:31 01:45:56 25° 316° (NW) 01:54:25 29.354 - 29.394 USB, Beacon 29.352 USB
Oscar 16 22 Oct 02:00:50 02:04:06 17° 95° (E) 02:07:21 437.025 USB, Beacon 2401.1428
AO-Echo 22 Oct 02:22:45 02:25:34 14° 93° (E) 02:28:22 ?
UOSAT-12 22 Oct 02:24:53 02:29:02 32° 248° (WSW) 02:33:07 437.025 FM, 437.400 FM
JAS-1B 22 Oct 02:49:10 02:55:48 51° 102° (ESE) 03:03:41 435.800 - 435.900 CW/SSB
Oscar 19 22 Oct 02:53:20 02:58:24 63° 101° (ESE) 03:03:27 437.125 CW, 437.150 USB
AO-27 22 Oct 03:03:22 03:07:53 29° 98° (E) 03:12:22 436.795 MHz FM
Oscar 16 22 Oct 03:38:46 03:43:33 42° 287° (WNW) 03:48:20 437.025 USB, Beacon 2401.1428
Uribyol 2 22 Oct 03:52:13 03:57:26 80° 284° (WNW) 04:02:36 436.500 FM
PCSat 22 Oct 03:52:30 03:55:48 17° 104° (ESE) 03:59:07 145.825 MHz
ITAMSAT 1 22 Oct 03:57:24 04:02:38 76° 284° (WNW) 04:07:49 435.822 SSB
Gurwin Techsat 1B 22 Oct 03:58:26 04:03:38 54° 100° (E) 04:08:48 435.225 FM
AO-Echo 22 Oct 03:59:21 04:04:31 53° 286° (WNW) 04:09:39 ?
TMSAT-1 22 Oct 04:11:47 04:16:58 53° 100° (E) 04:22:07 436.925 FM
Oscar 19 22 Oct 04:35:18 04:37:08 12° 295° (WNW) 04:38:58 437.125 CW, 437.150 USB
OPAL 22 Oct 04:36:54 04:38:36 12° 63° (ENE) 04:40:17 ?
AO-7 22 Oct 04:37:32 04:43:46 23° 97° (E) 04:49:58 29.400 - 29.500 MHz
JAS-1B 22 Oct 04:40:53 04:46:09 25° 291° (WNW) 04:52:08 435.800 - 435.900 CW/SSB
AO-27 22 Oct 04:42:57 04:47:13 26° 291° (WNW) 04:51:28 436.795 MHz FM
Sapphire 22 Oct 05:10:22 05:15:46 88° 294° (WNW) 05:21:12 437.095 MHz 1200 baud AX-25 AFSK
PCSat 22 Oct 05:33:32 05:38:44 48° 298° (WNW) 05:43:59 145.825 MHz
Gurwin Techsat 1B 22 Oct 05:40:11 05:43:05 15° 294° (WNW) 05:45:59 435.225 FM
Uosat F 22 Oct 05:41:27 05:46:25 55° 101° (E) 05:51:20 435.120 FM
TMSAT-1 22 Oct 05:53:26 05:56:23 15° 294° (WNW) 05:59:19 436.925 FM
OPAL 22 Oct 06:11:42 06:16:51 69° 256° (WSW) 06:21:59 ?
JAS-2 22 Oct 06:13:43 06:20:44 36° 97° (E) 06:27:39 435.800 - 435.900 CW/SSB, 435.910 FM
RS-15 22 Oct 06:19:40 06:24:57 14° 32° (NNE) 06:30:17 29.354 - 29.394 USB, Beacon 29.352 USB
AO-7 22 Oct 06:28:42 06:36:51 62° 291° (WNW) 06:45:01 29.400 - 29.500 MHz
Sapphire 22 Oct 06:59:18 06:59:54 10° 310° (NW) 07:00:30 437.095 MHz 1200 baud AX-25 AFSK
Hamsat 22 Oct 07:17:54 07:22:06 84° 102° (ESE) 07:26:19 145.90 MHz
Uosat F 22 Oct 07:22:16 07:24:40 14° 294° (WNW) 07:27:03 435.120 FM
STRAND 1 22 Oct 07:51:17 07:56:23 76° 258° (WSW) 08:01:32 ?
JAS-2 22 Oct 07:58:26 08:05:35 42° 290° (WNW) 08:12:45 435.800 - 435.900 CW/SSB, 435.910 FM
Saudisat 1A 22 Oct 08:12:50 08:16:47 34° 112° (ESE) 08:20:46 436.775 MHz
RS-15 22 Oct 08:29:23 08:40:24 57° 58° (ENE) 08:51:51 29.354 - 29.394 USB, Beacon 29.352 USB
PANSAT 22 Oct 09:00:16 09:03:40 30° 163° (SSE) 09:07:03 not established
SO-67 22 Oct 09:02:57 09:06:03 31° 285° (WNW) 09:09:08 435.3500 MHz FM
Saudisat 1A 22 Oct 09:53:22 09:56:24 18° 307° (NW) 09:59:28 436.775 MHz
UKube-1 22 Oct 10:15:25 10:18:12 17° 95° (E) 10:20:57 145.840 MHz, 145.915 MHz
HO-68 22 Oct 10:22:56 10:30:06 67° 103° (ESE) 10:37:13 435.675 MHz FM
PANSAT 22 Oct 10:39:48 10:43:34 58° 175° (S) 10:47:20 not established
RS-15 22 Oct 10:42:29 10:52:13 35° 254° (WSW) 11:02:21 29.354 - 29.394 USB, Beacon 29.352 USB
FUNcube-1 22 Oct 10:50:24 10:52:41 14° 94° (E) 10:54:56 145.950 - 145.970 MHz USB
MaSat-1 22 Oct 10:57:11 10:59:35 39° 66° (ENE) 11:01:50 437.345 MHz
Oscar 11 22 Oct 10:58:19 11:02:31 52° 100° (E) 11:06:42 145.825 FM, Beacon 2401.500 USB
ZACube-1 22 Oct 11:39:31 11:43:44 64° 101° (E) 11:47:51 437.345 MHz
UKube-1 22 Oct 11:50:31 11:54:23 31° 288° (WNW) 11:58:13 145.840 MHz, 145.915 MHz
KITSAT 1 22 Oct 12:06:16 12:12:41 27° 105° (ESE) 12:19:07 435.175 FM
HO-68 22 Oct 12:12:22 12:17:06 19° 298° (WNW) 12:21:50 435.675 MHz FM
PANSAT 22 Oct 12:19:51 12:23:35 51° 188° (S) 12:27:18 not established
FUNcube-1 22 Oct 12:25:19 12:29:07 32° 287° (WNW) 12:32:50 145.950 - 145.970 MHz USB
Oscar 11 22 Oct 12:37:56 12:38:11 10° 293° (WNW) 12:38:26 145.825 FM, Beacon 2401.500 USB
ISS 22 Oct 13:10:01 13:12:56 29° 129° (SE) 13:15:52 145.800 FM
SO-50 22 Oct 13:13:00 13:16:29 23° 110° (ESE) 13:20:03 436.795 FM
Oscar 16 22 Oct 13:13:16 13:16:10 15° 67° (ENE) 13:19:03 437.025 USB, Beacon 2401.1428
JAS-1B 22 Oct 13:31:51 13:36:19 21° 68° (ENE) 13:40:31 435.800 - 435.900 CW/SSB
KITSAT 1 22 Oct 13:59:44 14:07:34 54° 300° (WNW) 14:15:26 435.175 FM
PANSAT 22 Oct 14:00:21 14:03:25 23° 200° (SSW) 14:06:29 not established
Sapphire 22 Oct 14:04:37 14:08:58 24° 57° (ENE) 14:13:18 437.095 MHz 1200 baud AX-25 AFSK
Oscar 19 22 Oct 14:04:45 14:09:45 52° 74° (ENE) 14:14:44 437.125 CW, 437.150 USB
AO-27 22 Oct 14:16:29 14:20:44 26° 69° (ENE) 14:25:00 436.795 MHz FM
PCSat 22 Oct 14:26:55 14:32:02 41° 61° (ENE) 14:37:07 145.825 MHz
ISS 22 Oct 14:47:08 14:49:38 19° 323° (NW) 14:52:09 145.800 FM
Oscar 16 22 Oct 14:50:02 14:55:02 50° 260° (W) 15:00:03 437.025 USB, Beacon 2401.1428
Oscar 10/S400 22 Oct 14:50:44 15:10:43 60° 157° (SSE) 15:36:33 145.825 - 145.975 CW/USB, Beacon 145.810 USB
UOSAT-12 22 Oct 14:51:28 14:54:54 21° 109° (ESE) 14:58:24 437.025 FM, 437.400 FM
SO-50 22 Oct 14:53:04 14:56:51 27° 305° (NW) 15:00:45 436.795 FM
Uribyol 2 22 Oct 15:04:28 15:09:40 88° 75° (ENE) 15:14:55 436.500 FM
AO-Echo 22 Oct 15:06:45 15:11:31 72° 258° (WSW) 15:16:28 ?
ITAMSAT 1 22 Oct 15:09:49 15:15:01 87° 257° (WSW) 15:20:15 435.822 SSB
Gurwin Techsat 1B 22 Oct 15:14:07 15:19:12 49° 73° (ENE) 15:24:19 435.225 FM
JAS-1B 22 Oct 15:20:50 15:26:46 40° 259° (W) 15:32:10 435.800 - 435.900 CW/SSB
TMSAT-1 22 Oct 15:27:08 15:32:12 48° 73° (ENE) 15:37:16 436.925 FM
AO-7 22 Oct 15:31:50 15:37:27 21° 59° (ENE) 15:43:03 29.400 - 29.500 MHz
Oscar 19 22 Oct 15:46:45 15:49:17 14° 266° (W) 15:51:50 437.125 CW, 437.150 USB
Sapphire 22 Oct 15:47:29 15:52:24 36° 251° (WSW) 15:57:18 437.095 MHz 1200 baud AX-25 AFSK
AO-27 22 Oct 15:55:38 16:00:04 29° 263° (W) 16:04:33 436.795 MHz FM
PCSat 22 Oct 16:11:16 16:15:04 20° 255° (WSW) 16:18:52 145.825 MHz
UOSAT-12 22 Oct 16:30:42 16:34:48 31° 303° (WNW) 16:38:59 437.025 FM, 437.400 FM
Uosat F 22 Oct 16:49:25 16:54:07 42° 72° (ENE) 16:58:50 435.120 FM
Gurwin Techsat 1B 22 Oct 16:56:21 16:59:21 15° 266° (W) 17:02:21 435.225 FM
TMSAT-1 22 Oct 17:09:11 17:12:16 16° 266° (W) 17:15:23 436.925 FM
AO-7 22 Oct 17:21:07 17:29:22 74° 255° (WSW) 17:37:39 29.400 - 29.500 MHz
JAS-2 22 Oct 18:04:34 18:10:00 52° 72° (ENE) 18:16:08 435.800 - 435.900 CW/SSB, 435.910 FM
Hamsat 22 Oct 18:06:09 18:09:47 29° 73° (ENE) 18:13:25 145.90 MHz
Saudisat 1A 22 Oct 18:23:27 18:27:52 78° 62° (ENE) 18:32:16 436.775 MHz
OPAL 22 Oct 18:27:17 18:32:06 50° 102° (ESE) 18:36:52 ?
Uosat F 22 Oct 18:29:56 18:33:00 16° 265° (W) 18:36:06 435.120 FM
SO-67 22 Oct 19:30:09 19:33:07 28° 74° (ENE) 19:36:07 435.3500 MHz FM
Hamsat 22 Oct 19:42:59 19:45:42 17° 265° (W) 19:48:25 145.90 MHz
JAS-2 22 Oct 19:52:08 19:55:33 16° 269° (W) 19:59:12 435.800 - 435.900 CW/SSB, 435.910 FM
STRAND 1 22 Oct 20:07:32 20:12:37 58° 101° (E) 20:17:39 ?
OPAL 22 Oct 20:07:54 20:10:30 14° 296° (WNW) 20:13:05 ?
HO-68 22 Oct 20:46:24 20:52:18 29° 65° (ENE) 20:58:12 435.675 MHz FM
SO-67 22 Oct 21:06:05 21:06:08 10° 266° (W) 21:06:10 435.3500 MHz FM
ISS 22 Oct 21:19:14 21:22:17 33° 41° (NE) 21:25:20 145.800 FM
Oscar 11 22 Oct 21:48:45 21:52:01 21° 71° (ENE) 21:55:16 145.825 FM, Beacon 2401.500 USB
STRAND 1 22 Oct 21:48:54 21:51:14 13° 295° (WNW) 21:53:34 ?
KITSAT 1 22 Oct 21:59:24 22:06:21 31° 54° (NE) 22:13:14 435.175 FM
ZACube-1 22 Oct 22:30:37 22:34:31 28° 72° (ENE) 22:38:23 437.345 MHz
